TimeCST,TemperatureF,Dew PointF,Humidity,Sea Level PressureIn,VisibilityMPH,Wind Direction,Wind SpeedMPH,Gust SpeedMPH,PrecipitationIn,Events,Conditions,WindDirDegrees,DateUTC
12:15 AM,32.4,27.3,82,30.36,10.0,SE,3.5,-,N/A,,Clear,130,2012-11-15 06:15:00
12:35 AM,32.0,28.4,87,30.35,10.0,Calm,Calm,-,N/A,,Clear,0,2012-11-15 06:35:00
12:55 AM,33.8,28.4,81,30.35,10.0,Calm,Calm,-,N/A,,Clear,0,2012-11-15 06:55:00
1:15 AM,33.4,27.9,80,30.35,10.0,SE,4.6,-,N/A,,Clear,140,2012-11-15 07:15:00
1:35 AM,33.3,27.9,81,30.34,10.0,Calm,Calm,-,N/A,,Clear,0,2012-11-15 07:35:00
1:55 AM,32.9,28.0,82,30.35,10.0,Calm,Calm,-,N/A,,Clear,0,2012-11-15 07:55:00
2:15 AM,32.9,28.2,83,30.35,10.0,Calm,Calm,-,N/A,,Clear,0,2012-11-15 08:15:00
2:35 AM,32.9,27.5,81,30.35,10.0,Calm,Calm,-,N/A,,Clear,0,2012-11-15 08:35:00
2:55 AM,33.1,27.5,80,30.35,10.0,Calm,Calm,-,N/A,,Clear,0,2012-11-15 08:55:00
3:15 AM,32.9,27.5,81,30.35,10.0,Calm,Calm,-,N/A,,Clear,0,2012-11-15 09:15:00
3:35 AM,32.0,27.9,85,30.34,10.0,Calm,Calm,-,N/A,,Clear,0,2012-11-15 09:35:00
3:55 AM,31.8,28.4,87,30.34,10.0,Calm,Calm,-,N/A,,Clear,0,2012-11-15 09:55:00
4:15 AM,31.8,28.2,87,30.34,10.0,Calm,Calm,-,N/A,,Clear,0,2012-11-15 10:15:00
4:35 AM,31.8,27.9,85,30.35,10.0,Calm,Calm,-,N/A,,Clear,0,2012-11-15 10:35:00
4:55 AM,31.5,27.9,87,30.35,10.0,Calm,Calm,-,N/A,,Clear,0,2012-11-15 10:55:00
5:15 AM,31.6,27.7,85,30.35,10.0,Calm,Calm,-,N/A,,Clear,0,2012-11-15 11:15:00
5:35 AM,31.1,27.7,87,30.36,10.0,Calm,Calm,-,N/A,,Clear,0,2012-11-15 11:35:00
5:55 AM,31.5,27.5,85,30.35,10.0,SSE,3.5,-,N/A,,Clear,160,2012-11-15 11:55:00
6:15 AM,31.3,27.5,86,30.35,10.0,Calm,Calm,-,N/A,,Clear,0,2012-11-15 12:15:00
6:35 AM,30.7,26.8,85,30.35,7.0,Calm,Calm,-,N/A,,Clear,0,2012-11-15 12:35:00
6:55 AM,31.6,27.3,84,30.35,7.0,Calm,Calm,-,N/A,,Clear,0,2012-11-15 12:55:00
7:15 AM,32.0,27.5,83,30.36,10.0,Calm,Calm,-,N/A,,Clear,0,2012-11-15 13:15:00
7:35 AM,32.4,27.9,83,30.36,7.0,Calm,Calm,-,N/A,,Clear,0,2012-11-15 13:35:00
7:55 AM,32.2,28.4,86,30.37,10.0,Calm,Calm,-,N/A,,Clear,0,2012-11-15 13:55:00
8:15 AM,32.7,29.1,87,30.38,10.0,Calm,Calm,-,N/A,,Clear,0,2012-11-15 14:15:00
8:35 AM,34.7,30.7,85,30.38,7.0,Calm,Calm,-,N/A,,Clear,0,2012-11-15 14:35:00
8:55 AM,36.3,31.3,82,30.38,10.0,Calm,Calm,-,N/A,,Clear,0,2012-11-15 14:55:00
9:15 AM,37.6,32.0,80,30.38,10.0,SSE,3.5,-,N/A,,Clear,160,2012-11-15 15:15:00
9:35 AM,39.0,32.2,76,30.38,10.0,SSE,4.6,-,N/A,,Clear,150,2012-11-15 15:35:00
9:55 AM,40.3,32.0,72,30.38,10.0,SSE,4.6,-,N/A,,Clear,160,2012-11-15 15:55:00
10:15 AM,41.7,32.4,69,30.38,10.0,SSE,3.5,-,N/A,,Clear,150,2012-11-15 16:15:00
10:35 AM,42.8,31.6,65,30.38,10.0,SSW,3.5,-,N/A,,Clear,200,2012-11-15 16:35:00
10:55 AM,44.1,31.8,62,30.38,10.0,Calm,Calm,-,N/A,,Clear,0,2012-11-15 16:55:00
11:15 AM,46.2,32.2,58,30.38,10.0,Calm,Calm,-,N/A,,Clear,0,2012-11-15 17:15:00
11:35 AM,47.5,32.4,56,30.37,10.0,SE,3.5,-,N/A,,Clear,140,2012-11-15 17:35:00
11:55 AM,50.2,33.3,52,30.36,10.0,Calm,Calm,-,N/A,,Clear,0,2012-11-15 17:55:00
12:15 PM,50.9,30.7,46,30.35,10.0,Calm,Calm,-,N/A,,Clear,0,2012-11-15 18:15:00
12:35 PM,52.5,31.6,45,30.34,10.0,Calm,Calm,-,N/A,,Clear,0,2012-11-15 18:35:00
12:55 PM,52.9,29.8,41,30.34,10.0,Calm,Calm,-,N/A,,Clear,0,2012-11-15 18:55:00
1:15 PM,54.9,29.8,38,30.33,10.0,Calm,Calm,-,N/A,,Clear,0,2012-11-15 19:15:00
1:35 PM,54.9,26.2,33,30.33,10.0,Calm,Calm,-,N/A,,Clear,0,2012-11-15 19:35:00
1:55 PM,54.9,28.6,37,30.32,10.0,East,3.5,-,N/A,,Clear,100,2012-11-15 19:55:00
2:15 PM,55.6,27.3,34,30.32,10.0,Calm,Calm,-,N/A,,Clear,0,2012-11-15 20:15:00
2:35 PM,55.2,27.5,34,30.33,10.0,Calm,Calm,-,N/A,,Clear,0,2012-11-15 20:35:00
2:55 PM,54.5,28.6,37,30.33,10.0,Calm,Calm,-,N/A,,Clear,0,2012-11-15 20:55:00
3:15 PM,54.0,28.6,38,30.33,10.0,SE,3.5,-,N/A,,Clear,130,2012-11-15 21:15:00
3:35 PM,53.4,34.3,48,30.33,10.0,SE,3.5,-,N/A,,Clear,140,2012-11-15 21:35:00
3:55 PM,52.5,33.3,48,30.33,10.0,Calm,Calm,-,N/A,,Clear,0,2012-11-15 21:55:00
4:15 PM,50.5,34.2,53,30.33,10.0,ESE,4.6,-,N/A,,Clear,120,2012-11-15 22:15:00
4:35 PM,50.2,32.0,50,30.33,10.0,SE,3.5,-,N/A,,Clear,130,2012-11-15 22:35:00
4:55 PM,49.6,31.6,50,30.33,10.0,SE,3.5,-,N/A,,Clear,130,2012-11-15 22:55:00
5:15 PM,48.2,32.0,54,30.34,10.0,Calm,Calm,-,N/A,,Clear,0,2012-11-15 23:15:00
5:35 PM,47.7,28.8,48,30.34,10.0,Calm,Calm,-,N/A,,Clear,0,2012-11-15 23:35:00
5:55 PM,46.9,28.0,48,30.34,10.0,Calm,Calm,-,N/A,,Clear,0,2012-11-15 23:55:00
6:15 PM,46.2,28.8,51,30.35,10.0,Calm,Calm,-,N/A,,Scattered Clouds,0,2012-11-16 00:15:00
6:35 PM,44.4,31.1,60,30.35,7.0,Calm,Calm,-,N/A,,Overcast,0,2012-11-16 00:35:00
6:55 PM,44.6,29.8,56,30.35,5.0,Calm,Calm,-,N/A,,Haze,0,2012-11-16 00:55:00
7:15 PM,44.6,30.2,57,30.36,7.0,Calm,Calm,-,N/A,,Mostly Cloudy,0,2012-11-16 01:15:00
7:35 PM,45.5,29.3,53,30.36,10.0,Calm,Calm,-,N/A,,Overcast,0,2012-11-16 01:35:00
7:55 PM,42.3,31.1,65,30.36,5.0,South,3.5,-,N/A,,Haze,170,2012-11-16 01:55:00
8:15 PM,43.3,29.7,59,30.36,7.0,Calm,Calm,-,N/A,,Scattered Clouds,0,2012-11-16 02:15:00
8:35 PM,42.8,30.2,61,30.36,5.0,Calm,Calm,-,N/A,,Haze,0,2012-11-16 02:35:00
8:55 PM,43.0,29.3,59,30.37,10.0,Calm,Calm,-,N/A,,Clear,0,2012-11-16 02:55:00
9:15 PM,40.3,31.3,70,30.37,5.0,Calm,Calm,-,N/A,,Haze,0,2012-11-16 03:15:00
9:35 PM,40.6,31.5,70,30.37,7.0,Calm,Calm,-,N/A,,Clear,0,2012-11-16 03:35:00
9:55 PM,40.1,31.3,71,30.37,10.0,Calm,Calm,-,N/A,,Clear,0,2012-11-16 03:55:00
10:15 PM,36.7,32.0,83,30.38,10.0,Calm,Calm,-,N/A,,Clear,0,2012-11-16 04:15:00
10:35 PM,36.5,32.0,84,30.38,10.0,Calm,Calm,-,N/A,,Clear,0,2012-11-16 04:35:00
10:55 PM,35.6,32.0,87,30.38,10.0,Calm,Calm,-,N/A,,Clear,0,2012-11-16 04:55:00
11:15 PM,35.8,32.0,86,30.38,10.0,Calm,Calm,-,N/A,,Clear,0,2012-11-16 05:15:00
11:35 PM,34.9,31.6,88,30.38,10.0,Calm,Calm,-,N/A,,Clear,0,2012-11-16 05:35:00
11:55 PM,34.7,31.1,87,30.38,10.0,West,3.5,-,N/A,,Clear,270,2012-11-16 05:55:00